Location: Asheville, NC
(35.6000°N, 82.5500°W)
Time: 00:27:54
(UTC-04:00)

Vanguard 3 - Pass Details

Date: 08 March 2018
Orbit: 508 x 3264 km, 33.3° (Epoch: 24 June)

Event Time Altitude Azimuth Distance (km) Brightness Sun altitude
Rises 06:09:13 0° 186° (S) 7,112 11.9 -9.3°
Reaches altitude 10° 06:17:31 10° 167° (SSE) 6,192 11.8 -7.6°
Maximum altitude 06:26:46 15° 139° (SE) 5,579 12.1 -5.7°
Drops below altitude 10° 06:35:12 10° 110° (ESE) 5,646 13.0 -4.0°
Sets 06:41:51 0° 90° (E) 6,190 14.9 -2.6°
